Location: Trout Lake
(45.9980°N, 121.5270°W)
Time: 13:17:50
(UTC-08:00)

Daily predictions for brighter satellites

Satellite Brightness Start Highest point End
(mag) Time Altitude Azimuth Time Altitude Azimuth Time Altitude Azimuth
COSMOS 2428 3.3 17:12:54 10° S 17:18:07 38° ESE 17:23:22 10° NE
CZ-4 R/B 1.2 17:16:12 10° SSE 17:20:04 80° ENE 17:23:59 10° N
COSMO-SKYMED 1 3.9 17:17:00 10° NE 17:20:15 20° E 17:23:28 10° SE
Cosmos 2228 Rocket 3.6 17:17:32 10° N 17:21:39 37° ENE 17:25:46 10° SE
Cosmos 1300 4.3 17:19:53 10° NNE 17:22:18 16° ENE 17:24:42 10° ESE
Cosmos 2237 Rocket 3.8 17:21:49 10° SE 17:24:45 14° E 17:27:41 10° ENE
YAOGAN 1 2.6 17:20:30 10° SSE 17:24:46 64° ENE 17:29:04 10° N
Cosmos 1464 Rocket 4.4 17:19:42 10° NNW 17:25:51 71° W 17:31:55 10° S
MOS 1 4.3 17:22:47 10° SSE 17:28:25 80° ENE 17:34:07 10° NNW
Cosmos 2150 Rocket 4.2 17:23:52 10° NNW 17:29:07 82° WSW 17:34:17 10° SSE
Cosmos 1726 3.5 17:27:13 10° NNE 17:29:58 19° ENE 17:32:41 10° ESE
Thor Agena Rocket 3.8 17:24:57 10° NNE 17:30:07 54° E 17:35:12 10° S
Cosmos 1898 Rocket 4.1 17:25:45 10° NNW 17:31:03 66° WSW 17:36:19 10° S
BREEZE-M DEB (TANK) 3.8 17:19:31 10° WNW 17:31:24 72° SW 17:35:01 10° SE
SPOT 3 Rocket 3.5 17:26:23 10° SSE 17:31:31 80° ENE 17:36:42 10° NNW
Cosmos 1408 Rocket 3.5 17:30:37 10° S 17:35:03 77° E 17:39:30 10° NNE
USA 116 3.1 17:34:13 10° NNE 17:37:34 75° ESE 17:40:40 10° S
ATLAS 3B R/B 4.3 17:32:02 10° W 17:38:01 26° NNW 17:43:48 10° NNE
Cosmos 1125 Rocket 4.1 17:33:47 10° N 17:38:33 34° ENE 17:43:15 10° SE
Meteor 2-2 Rocket 4.3 17:33:44 10° N 17:39:16 55° ENE 17:44:47 10° SSE
Cosmos 1814 Rocket 4.0 17:34:12 10° SSW 17:39:31 75° ESE 17:44:53 10° NNE
USA 215 3.3 17:35:05 10° ESE 17:41:37 74° NNE 17:48:09 10° NW
Cosmos 990 Rocket 4.1 17:37:26 10° NNW 17:42:43 89° WSW 17:47:59 10° SSE
IDEFIX/ARIANE 42P 3.1 17:40:32 10° S 17:45:42 64° WSW 17:50:55 10° NNW
Cosmos 2322 4.0 17:40:18 10° SSW 17:45:58 73° WNW 17:51:42 10° NNE
CZ-4 R/B 4.4 17:42:31 10° SSE 17:46:40 84° ENE 17:50:50 10° NNW
Meteor 1-28 Rocket 4.3 17:45:15 10° NE 17:48:18 23° E 17:51:19 10° SSE
Cosmos 332 Rocket 4.2 17:44:14 10° S 17:48:44 41° ESE 17:53:18 10° NE
NOSS 3-2 (C) 4.3 17:46:29 10° WSW 17:52:27 47° NW 17:59:02 10° NNE
SL-16 R/B 3.9 17:48:54 10° WSW 17:53:43 28° NW 17:58:33 10° N
Cosmos 2058 4.2 17:51:43 10° SE 17:54:43 20° E 17:56:35 15° NE
SJ-6B 3.9 17:52:20 10° ESE 17:55:41 25° ENE 17:59:05 10° N
Cosmos 1844 Rocket 2.7 17:50:22 10° NNW 17:56:05 89° ENE 18:01:44 10° SSE
Cosmos 1743 Rocket 3.6 17:51:59 10° S 17:56:24 62° E 18:00:50 10° NNE
Tsikada Rocket 4.1 17:50:20 10° S 17:56:43 85° W 18:03:11 10° N
Cosmos 841 Rocket 3.5 17:54:42 10° S 17:59:53 63° ESE 18:05:07 10° NNE
Cosmos 2333 4.2 17:54:54 10° SSW 18:00:27 70° ESE 18:06:02 10° NNE
Cosmos 1328 Rocket 3.6 17:56:04 10° N 18:00:32 89° E 18:04:58 10° S
Molniya-1 4.2 17:59:43 10° SSW 18:02:30 55° ESE 18:06:08 16° NE
Cosmos 1515 Rocket 3.5 18:01:53 10° N 18:06:22 78° E 18:10:49 10° SSE
SKYMED 2 3.6 18:04:19 10° NNE 18:08:38 62° E 18:12:56 10° S
Cosmos 2360 Rocket 3.2 18:05:48 10° SW 18:11:08 43° NW 18:16:31 10° NNE
Cosmos 1980 4.2 18:06:08 10° S 18:11:18 38° ESE 18:15:06 17° NE
ALOS 3.3 18:08:12 10° ESE 18:11:56 25° ENE 18:15:41 10° N
Cosmos 44 4.3 18:10:02 10° S 18:14:34 30° ESE 18:16:36 23° ENE
Cosmos 2151 3.2 18:11:21 10° SSE 18:15:21 44° E 18:19:07 11° NNE
CZ-4C R/B 4.3 18:14:48 10° NW 18:18:41 17° N 18:22:30 11° NNE
Cosmos 371 Rocket 3.3 18:14:50 10° S 18:19:32 59° ESE 18:23:23 15° NNE
Cosmos 1151 Rocket 2.9 18:15:35 10° N 18:19:51 74° E 18:24:07 10° SSE
Cosmos 2333 Rocket 2.3 18:16:07 10° S 18:21:35 53° ESE 18:25:43 18° NE
Cosmos 1634 Rocket 4.0 18:16:46 10° N 18:23:00 87° W 18:29:10 10° S
Cosmos 1500 Rocket 3.4 18:19:24 10° S 18:23:42 86° ESE 18:28:06 10° N
Cosmos 1340 Rocket 3.6 18:22:17 10° SSE 18:25:27 29° ESE 18:25:27 29° ESE
CENTAUR R/B 2.7 18:19:50 10° SW 18:25:59 76° NW 18:32:01 15° NE
Cosmos 836 Rocket 4.4 18:21:58 10° S 18:27:10 70° ESE 18:31:41 14° NNE
FENGYUN 3A 4.1 18:22:31 10° SE 18:27:22 36° ENE 18:32:14 10° N
Meteor 1-27 4.2 18:24:34 10° N 18:30:21 66° ENE 18:36:08 10° SSE
OTV 4 2.8 18:28:34 10° SW 18:30:32 16° S 18:31:42 13° SSE
Lacrosse 5 3.2 18:27:36 10° W 18:32:09 31° NNW 18:34:57 19° NNE
SL-19 R/B 4.4 18:27:52 10° SE 18:33:37 53° ENE 18:39:05 10° N
ATLAS 5 CENTAUR R/B 4.2 18:31:46 10° NNW 18:34:23 13° N 18:35:59 12° NNE
BREEZE M DEB (TANK) 1.3 18:31:39 10° WNW 18:34:27 66° SSW 18:34:34 64° S
SL-14 R/B 3.1 18:32:54 10° S 18:36:48 75° E 18:39:35 19° NNE
Cosmos 44 Rocket 3.3 18:33:06 10° SSW 18:38:12 70° ESE 18:40:38 31° NE
Cosmos 2219 Rocket 2.1 18:33:00 10° SSW 18:38:40 90° ESE 18:43:10 17° NNE
Cosmos 2278 Rocket 2.1 18:34:25 10° NNW 18:40:09 90° NE 18:45:50 10° SSE
Meteor 2-10 3.8 18:35:31 10° N 18:40:36 76° E 18:45:46 10° SSE
METEOR-M 4.0 18:36:38 10° SSE 18:41:59 84° ENE 18:47:22 10° NNW
Timation 1 Rocket 4.4 18:37:28 10° NNW 18:43:24 57° ENE 18:47:30 20° SE
Resurs 01 Rocket 1.8 18:46:14 45° E 18:46:35 46° ENE 18:50:52 10° N
Cosmos 372 Rocket 4.0 18:49:52 10° NNW 18:54:59 80° WSW 19:00:05 10° SSE
NOSS 0 Rocket 3.9 18:50:02 10° SSW 18:56:16 87° ESE 19:00:13 24° NNE
COSMO-SKYMED 1 3.7 18:52:29 10° N 18:56:35 42° WNW 19:00:41 10° SW
Cosmos 1300 4.0 18:54:37 10° NNW 18:58:15 41° W 19:01:51 10° SSW
Lacrosse 5 rocket 1.0 18:55:03 10° NW 18:58:43 78° N 18:58:43 78° N
Cosmos 1707 Rocket 4.1 18:57:19 10° N 19:00:21 42° NNE 19:00:21 42° NNE
Cosmos 2084 3.1 18:58:15 10° SW 19:02:05 84° WNW 19:02:05 84° WNW
COSMOS 2428 4.0 18:57:05 10° WSW 19:02:23 38° NW 19:07:24 11° NNE
Lacrosse 4 Rocket 3.8 19:01:35 10° N 19:01:56 12° N 19:01:56 12° N
Cosmos 1726 4.0 19:02:00 10° NNW 19:05:24 32° W 19:08:46 10° SSW
Cosmos 304 Rocket 4.3 19:03:02 10° S 19:06:37 43° SSE 19:06:37 43° SSE
Cosmos 2237 Rocket 2.1 19:02:21 10° SSW 19:07:58 87° WNW 19:10:28 35° NNE
Cosmos 783 Rocket 4.4 19:05:23 10° SSW 19:10:42 87° ESE 19:12:23 45° NNE
Cosmos 540 Rocket 3.6 19:06:37 10° SSW 19:11:46 73° WNW 19:14:11 32° N
Cosmos 2369 Rocket 4.1 19:08:02 10° N 19:09:29 14° NNE 19:09:29 14° NNE
SL-16 R/B 2.7 19:06:36 10° S 19:10:53 41° SE 19:10:53 41° SE
Cosmos 2297 3.6 19:12:22 10° NNW 19:18:06 87° ENE 19:20:01 44° SSE
USA 215 4.5 19:18:54 10° SSE 19:24:55 38° SW 19:30:58 10° WNW
Cosmos 2058 4.4 19:27:37 10° SW 19:31:25 35° WNW 19:32:53 27° NNW
ATLAS 3B R/B 4.4 19:26:40 10° NW 19:31:25 18° N 19:32:34 18° NNE
Spot 2 Rocket 3.7 19:28:06 10° S 19:33:07 66° WSW 19:38:09 10° NNW
Nadezhda 4 Rocket 3.9 19:33:31 10° S 19:39:46 84° W 19:43:42 25° N
ALOS 3.4 19:44:45 10° SSW 19:49:10 41° W 19:53:35 10° NNW
Cosmos 44 4.3 19:50:38 10° WSW 19:55:04 45° WNW 19:55:04 45° WNW
Cosmos 2333 Rocket 3.9 20:01:17 10° WSW 20:06:09 29° NW 20:07:47 25° NNW
CZ-4C R/B 4.3 20:04:30 10° NNW 20:07:41 21° N 20:07:41 21° N
Lacrosse 5 4.1 20:12:18 10° NW 20:14:10 18° NNW 20:14:10 18° NNW
CENTAUR R/B 4.2 20:12:26 10° W 20:17:55 27° NNW 20:19:14 25° N
ATLAS 5 CENTAUR R/B 4.5 20:16:21 10° NNW 20:17:33 15° NNW 20:17:33 15° NNW
Resurs 01 Rocket 4.1 20:23:48 19° W 20:23:48 19° W 20:26:32 10° NW
Cosmos 2219 Rocket 4.4 20:19:29 10° W 20:23:25 19° NW 20:24:55 17° NNW
